Hourly Data Report for April 27, 2021

CLYDE RIVER A
NUNAVUT
Current Station Operator: NAVCAN

70°29'09.000" N
68°31'01.000" W
26.50 m
2400804
71090
YCY

Download Data

Hourly Data (April 2021)
Hourly Data Report for April 27, 2021
TIME
LST
Temp Definition
°C
Dew Point Definition
°C
Rel Hum Definition
%
Precip. Amount Definition
mm

Wind Dir Definition
10's deg

Wind Spd Definition
km/h
Visibility Definition
km
Stn Press Definition
kPa
Hmdx Definition


Wind Chill Definition


Weather Definition


00:00 -4.3 -4.3 100 0.2   0 3.2 101.64     Snow
01:00 -4.5 -4.5 100 0.0   0 6.4 101.63     Snow
02:00 -4.6 -4.6 100 0.2 9 4 4.0 101.64   -6 Snow
03:00 -4.6 -4.6 100 0.5 10 4 1.2 101.63   -6 Snow
04:00 -4.5 -4.5 100 0.8 9 5 2.4 101.63   -7 Snow
05:00 -4.2 -4.2 100 0.5 9 4 4.8 101.61   -6 Snow
06:00 -3.9 -3.9 100 0.0 19 5 4.8 101.61   -6 Fog
07:00 -3.4 -3.4 100 0.0 14 8 16.1 101.61   -7 LegendNANA
08:00 -2.6 -2.7 99 0.0 15 18 16.1 101.63   -8 LegendNANA
09:00 -2.1 -3.5 91 0.0 15 21 16.1 101.60   -8 LegendNANA
10:00 -1.4 -3.2 88 0.0 23 15 16.1 101.68   -6 Snow
11:00 -0.6 -3.9 79 0.0 22 17 16.1 101.72   -6 LegendNANA
12:00 -3.2 -5.1 87 0.0 24 43 2.4 101.83   -12 Snow
13:00 -1.9 -5.1 79 0.0 24 28 16.1 101.91   -9 LegendNANA
14:00 -2.6 -5.7 79 0.0 20 24 16.1 102.03   -9 LegendNANA
15:00 -1.1 -6.1 69 0.0 21 21 16.1 102.13   -7 LegendNANA
16:00 -3.3 -6.9 76 0.0 20 26 16.1 102.19   -10 LegendNANA
17:00 -4.4 -7.5 79 0.0 30 9 16.1 102.26   -8 LegendNANA
18:00 -6.1 -9.4 78 0.0 31 13 16.1 102.33   -11 LegendNANA
19:00 -6.2 -9.6 77 0.0 24 13 16.1 102.40   -12 LegendNANA
20:00 -6.5 -10.3 75 0.0 LegendMM 4 16.1 102.46   -8 LegendNANA
21:00 -8.0 -12.3 72 0.0 27 5 16.1 102.50   -11 LegendNANA
22:00 -10.4 -13.9 76 0.0 27 11 16.1 102.51   -16 LegendNANA
23:00 -9.9 -13.9 73 0.0 26 11 16.1 102.56   -15 LegendNANA

Notes on Data Quality.

Legend

  • E = Estimated
  • M = Missing
  • NA = Not Available*
  • [empty] = Indicates an unobserved value
Date modified: